Hourly Weather Rudkivka

Today, 16 June, Wednesday

Time Temperature Precipitation Wind Pressure Humidity
00:00 +16°C° 0 mm 3 mps 739 mmHg 94%
01:00 +14°C° 0 mm 3 mps 739 mmHg 94%
02:00 +14°C° 0 mm 3 mps 739 mmHg 94%
03:00 +14°C° 0 mm 3 mps 739 mmHg 94%
04:00 +13°C° 0 mm 3 mps 739 mmHg 93%
05:00 +13°C° 0 mm 3 mps 739 mmHg 93%
06:00 +15°C° 0 mm 4 mps 739 mmHg 88%
07:00 +17°C° 0 mm 4 mps 740 mmHg 83%
08:00 +19°C° 0 mm 4 mps 740 mmHg 78%
09:00 +20°C° 0 mm 5 mps 740 mmHg 74%
10:00 +21°C° 0 mm 5 mps 740 mmHg 70%
11:00 +23°C° 0 mm 5 mps 741 mmHg 66%
12:00 +23°C° 0 mm 5 mps 740 mmHg 64%
13:00 +25°C° 0 mm 5 mps 740 mmHg 62%
14:00 +25°C° 0 mm 5 mps 740 mmHg 59%
15:00 +25°C° 0.4 mm 5 mps 740 mmHg 65%
16:00 +23°C° 0.4 mm 5 mps 740 mmHg 71%
17:00 +22°C° 0.4 mm 5 mps 740 mmHg 77%
18:00 +21°C° 0.2 mm 5 mps 741 mmHg 81%
19:00 +20°C° 0.2 mm 4 mps 741 mmHg 86%
20:00 +18°C° 0.2 mm 3 mps 741 mmHg 90%
21:00 +18°C° 0 mm 3 mps 741 mmHg 91%
22:00 +17°C° 0 mm 3 mps 742 mmHg 92%
23:00 +16°C° 0 mm 3 mps 742 mmHg 94%

Tomorrow, 17 June, Thursday

Time Temperature Precipitation Wind Pressure Humidity
00:00 +16°C° 0 mm 3 mps 742 mmHg 94%
01:00 +16°C° 0 mm 3 mps 742 mmHg 94%
02:00 +14°C° 0 mm 3 mps 742 mmHg 95%
03:00 +14°C° 0 mm 3 mps 742 mmHg 95%
04:00 +14°C° 0 mm 3 mps 742 mmHg 95%
05:00 +14°C° 0 mm 3 mps 742 mmHg 95%
06:00 +17°C° 0 mm 3 mps 743 mmHg 91%
07:00 +18°C° 0 mm 4 mps 743 mmHg 86%
08:00 +20°C° 0 mm 4 mps 744 mmHg 81%
09:00 +21°C° 0 mm 4 mps 744 mmHg 77%
10:00 +22°C° 0 mm 5 mps 744 mmHg 73%
11:00 +24°C° 0 mm 6 mps 744 mmHg 69%
12:00 +25°C° 0 mm 5 mps 744 mmHg 66%
13:00 +26°C° 0 mm 5 mps 744 mmHg 63%
14:00 +27°C° 0 mm 5 mps 744 mmHg 61%
15:00 +26°C° 0.1 mm 5 mps 744 mmHg 64%
16:00 +26°C° 0.1 mm 5 mps 744 mmHg 67%
17:00 +25°C° 0.1 mm 5 mps 744 mmHg 70%
18:00 +23°C° 0 mm 4 mps 744 mmHg 75%
19:00 +21°C° 0 mm 4 mps 745 mmHg 80%
20:00 +20°C° 0 mm 3 mps 745 mmHg 84%
21:00 +19°C° 0 mm 3 mps 745 mmHg 87%
22:00 +18°C° 0 mm 3 mps 745 mmHg 91%
23:00 +18°C° 0 mm 3 mps 745 mmHg 94%

Day after tomorrow, 18 June, Friday

Time Temperature Precipitation Wind Pressure Humidity
00:00 +17°C° 0 mm 3 mps 745 mmHg 95%
01:00 +17°C° 0 mm 3 mps 745 mmHg 95%
02:00 +16°C° 0 mm 3 mps 745 mmHg 96%
03:00 +16°C° 0 mm 3 mps 745 mmHg 96%
04:00 +16°C° 0 mm 3 mps 746 mmHg 96%
05:00 +14°C° 0 mm 3 mps 746 mmHg 95%
06:00 +17°C° 0 mm 4 mps 746 mmHg 90%
07:00 +18°C° 0 mm 4 mps 746 mmHg 85%
08:00 +20°C° 0 mm 5 mps 746 mmHg 80%
09:00 +21°C° 0 mm 5 mps 746 mmHg 75%
10:00 +22°C° 0 mm 5 mps 746 mmHg 71%
11:00 +23°C° 0 mm 5 mps 746 mmHg 67%
12:00 +25°C° 0 mm 5 mps 746 mmHg 65%
13:00 +25°C° 0 mm 5 mps 746 mmHg 63%
14:00 +26°C° 0 mm 5 mps 746 mmHg 61%
15:00 +26°C° 0 mm 5 mps 746 mmHg 65%
16:00 +26°C° 0 mm 5 mps 745 mmHg 69%
17:00 +25°C° 0 mm 5 mps 745 mmHg 72%
18:00 +23°C° 0 mm 5 mps 745 mmHg 76%
19:00 +22°C° 0 mm 4 mps 746 mmHg 80%
20:00 +21°C° 0 mm 4 mps 746 mmHg 83%
21:00 +20°C° 0 mm 3 mps 746 mmHg 85%
22:00 +20°C° 0 mm 3 mps 746 mmHg 87%
23:00 +19°C° 0 mm 3 mps 746 mmHg 89%

19 June, Saturday

Time Temperature Precipitation Wind Pressure Humidity
00:00 +18°C° 0 mm 3 mps 746 mmHg 91%
01:00 +18°C° 0 mm 3 mps 746 mmHg 93%
02:00 +17°C° 0 mm 3 mps 746 mmHg 95%
03:00 +17°C° 0 mm 3 mps 746 mmHg 96%
04:00 +17°C° 0 mm 2 mps 746 mmHg 96%
05:00 +17°C° 0 mm 2 mps 746 mmHg 96%
06:00 +18°C° 0 mm 3 mps 746 mmHg 91%
07:00 +20°C° 0 mm 4 mps 746 mmHg 86%
08:00 +21°C° 0 mm 4 mps 746 mmHg 81%
09:00 +22°C° 0 mm 5 mps 746 mmHg 77%
10:00 +23°C° 0 mm 5 mps 746 mmHg 72%
11:00 +24°C° 0 mm 6 mps 746 mmHg 68%
12:00 +25°C° 0.2 mm 5 mps 746 mmHg 69%
13:00 +25°C° 0.2 mm 5 mps 745 mmHg 70%
14:00 +25°C° 0.2 mm 5 mps 745 mmHg 71%
15:00 +25°C° 0.5 mm 5 mps 745 mmHg 74%
16:00 +25°C° 0.5 mm 4 mps 745 mmHg 76%
17:00 +23°C° 0.5 mm 4 mps 745 mmHg 79%
18:00 +22°C° 0.3 mm 4 mps 745 mmHg 82%
19:00 +21°C° 0.3 mm 3 mps 745 mmHg 86%
20:00 +20°C° 0.3 mm 3 mps 745 mmHg 90%
21:00 +19°C° 0 mm 3 mps 745 mmHg 91%
22:00 +19°C° 0 mm 3 mps 745 mmHg 93%
23:00 +18°C° 0 mm 3 mps 745 mmHg 94%

20 June, Sunday

Time Temperature Precipitation Wind Pressure Humidity
00:00 +18°C° 0 mm 3 mps 745 mmHg 95%
01:00 +17°C° 0 mm 3 mps 745 mmHg 95%
02:00 +17°C° 0 mm 3 mps 745 mmHg 95%
03:00 +17°C° 0 mm 3 mps 745 mmHg 95%
04:00 +17°C° 0 mm 3 mps 745 mmHg 95%
05:00 +17°C° 0 mm 3 mps 745 mmHg 95%
06:00 +18°C° 0 mm 3 mps 745 mmHg 91%
07:00 +20°C° 0 mm 4 mps 745 mmHg 86%
08:00 +21°C° 0 mm 4 mps 746 mmHg 82%
09:00 +22°C° 0 mm 4 mps 745 mmHg 76%
10:00 +23°C° 0 mm 4 mps 745 mmHg 71%
11:00 +26°C° 0 mm 4 mps 745 mmHg 66%
12:00 +26°C° 0 mm 4 mps 745 mmHg 64%
13:00 +27°C° 0 mm 4 mps 745 mmHg 63%
14:00 +27°C° 0 mm 4 mps 744 mmHg 61%
15:00 +27°C° 0 mm 4 mps 744 mmHg 63%
16:00 +27°C° 0 mm 4 mps 744 mmHg 65%
17:00 +27°C° 0 mm 3 mps 744 mmHg 68%
18:00 +25°C° 0 mm 3 mps 744 mmHg 74%
19:00 +22°C° 0 mm 3 mps 744 mmHg 80%
20:00 +21°C° 0 mm 3 mps 743 mmHg 86%
21:00 +20°C° 0 mm 3 mps 743 mmHg 88%
22:00 +19°C° 0 mm 3 mps 743 mmHg 90%
23:00 +18°C° 0 mm 2 mps 743 mmHg 92%

21 June, Monday

Time Temperature Precipitation Wind Pressure Humidity
00:00 +18°C° 0 mm 2 mps 743 mmHg 92%
01:00 +17°C° 0 mm 2 mps 743 mmHg 93%
02:00 +17°C° 0 mm 2 mps 743 mmHg 93%
03:00 +17°C° 0 mm 3 mps 743 mmHg 94%
04:00 +17°C° 0 mm 3 mps 743 mmHg 94%
05:00 +17°C° 0 mm 3 mps 743 mmHg 94%
06:00 +18°C° 0 mm 3 mps 742 mmHg 89%
07:00 +20°C° 0 mm 4 mps 742 mmHg 83%
08:00 +22°C° 0 mm 4 mps 742 mmHg 77%
09:00 +23°C° 0 mm 5 mps 742 mmHg 72%
10:00 +25°C° 0 mm 5 mps 742 mmHg 67%
11:00 +26°C° 0 mm 5 mps 742 mmHg 62%
12:00 +27°C° 0 mm 6 mps 741 mmHg 60%
13:00 +28°C° 0 mm 6 mps 741 mmHg 59%
14:00 +28°C° 0 mm 6 mps 740 mmHg 57%
15:00 +28°C° 0.1 mm 5 mps 740 mmHg 61%
16:00 +27°C° 0.1 mm 5 mps 740 mmHg 66%
17:00 +27°C° 0.1 mm 5 mps 740 mmHg 70%
18:00 +25°C° 0 mm 4 mps 740 mmHg 74%
19:00 +23°C° 0 mm 4 mps 740 mmHg 78%
20:00 +22°C° 0 mm 3 mps 740 mmHg 83%
21:00 +21°C° 0 mm 3 mps 740 mmHg 85%
22:00 +20°C° 0 mm 3 mps 740 mmHg 87%
23:00 +19°C° 0 mm 3 mps 739 mmHg 89%
Show more